Weather History for Stuart, FL

Change the Weather History Date:

Friday, September 20, 2013

  Actual Average Record
Temperature  
Mean Temperature 80 °F -  
Max Temperature 84 °F 88 °F 95 °F (1987)
Min Temperature 77 °F 74 °F 69 °F (1976)
Cooling Degree Days 16    
Growing Degree Days 30 (Base 50)    
Moisture  
Dew Point 63 °F    
Average Humidity 57    
Maximum Humidity 69    
Minimum Humidity 42    
Precipitation  
Precipitation 0.00 in - - ()
Sea Level Pressure  
Sea Level Pressure 29.98 in    
Wind  
Wind Speed 8 mph (ENE)    
Max Wind Speed 14 mph    
Max Gust Speed -    
Visibility 9 miles    
Events      
Averages and records for this station are not official NWS values.
T = Trace of Precipitation, MM = Missing Value Source: NWS Daily Summary

Daily Weather History Graph

Daily Weather History Graph

Search for Another Location

Airport:

Trip Planner

Search our weather history database for the weather conditions in past years. The results will help you decide how hot, cold, wet, or windy it might be!

Date:

Astronomy

Sep. 20, 2013 Rise Set
Actual Time 7:08 AM EDT 7:19 PM EDT
Civil Twilight 6:45 AM EDT 7:42 PM EDT
Nautical Twilight 6:18 AM EDT 8:09 PM EDT
Astronomical Twilight 5:50 AM EDT 8:36 PM EDT
Moon 8:05 PM EDT (9/20) 8:11 AM EDT (9/20)
Length of Visible Light 12h 57m
Length of Day
12h 10m
Full, 98% of the Moon is Illuminated
Sep 20
Full
Sep 26
Last Quarter
Oct 4
New
Oct 11
First Quarter
Oct 18
Full

Hourly Weather History & Observations

Time (EDT) Temp. Heat Index Dew Point Humidity Pressure Visibility Wind Dir Wind Speed Gust Speed Precip Events Conditions
12:15 AM 80.6 °F 82.3 °F 64.4 °F 58% 30.02 in 10.0 mi East 9.2 mph - N/A   Clear
12:35 AM 78.8 °F - 64.4 °F 61% 30.02 in 10.0 mi East 6.9 mph - N/A   Clear
12:55 AM 78.8 °F - 64.4 °F 61% 30.02 in 10.0 mi East 8.1 mph - N/A   Clear
1:15 AM 78.8 °F - 66.2 °F 65% 30.01 in 10.0 mi East 5.8 mph - N/A   Scattered Clouds
1:35 AM 80.6 °F 82.7 °F 66.2 °F 61% 30.01 in 10.0 mi ENE 9.2 mph - N/A   Scattered Clouds
1:55 AM 78.8 °F - 64.4 °F 61% 30.01 in 10.0 mi East 9.2 mph - N/A   Scattered Clouds
2:15 AM 78.8 °F - 64.4 °F 61% 30.00 in 10.0 mi ENE 9.2 mph - N/A   Scattered Clouds
2:35 AM 78.8 °F - 64.4 °F 61% 30.00 in 10.0 mi ENE 6.9 mph - N/A   Scattered Clouds
2:55 AM 78.8 °F - 64.4 °F 61% 30.01 in 10.0 mi ENE 6.9 mph - N/A   Scattered Clouds
3:15 AM 78.8 °F - 62.6 °F 57% 30.00 in 10.0 mi ENE 8.1 mph - N/A   Scattered Clouds
3:35 AM 77.0 °F - 64.4 °F 65% 30.00 in 10.0 mi ENE 5.8 mph - N/A   Scattered Clouds
3:55 AM 77.0 °F - 64.4 °F 65% 30.00 in 10.0 mi NE 4.6 mph - N/A   Mostly Cloudy
4:15 AM 77.0 °F - 64.4 °F 65% 29.99 in 10.0 mi ENE 5.8 mph - N/A   Scattered Clouds
4:35 AM 77.0 °F - 64.4 °F 65% 29.99 in 10.0 mi ENE 5.8 mph - N/A   Clear
4:55 AM 77.0 °F - 64.4 °F 65% 29.99 in 10.0 mi NE 5.8 mph - N/A   Clear
5:15 AM 77.0 °F - 64.4 °F 65% 29.99 in 10.0 mi NE 5.8 mph - N/A   Clear
5:35 AM 77.0 °F - 64.4 °F 65% 29.99 in 10.0 mi NE 4.6 mph - N/A   Clear
5:55 AM 77.0 °F - 64.4 °F 65% 29.99 in 10.0 mi NE 3.5 mph - N/A   Clear
6:15 AM 77.0 °F - 64.4 °F 65% 29.99 in 10.0 mi NE 3.5 mph - N/A   Scattered Clouds
6:47 AM 77.0 °F - 66.2 °F 69% 29.99 in 7.0 mi ENE 5.8 mph - N/A   Mostly Cloudy
7:47 AM 78.8 °F - 64.4 °F 61% 30.00 in 7.0 mi NE 6.9 mph - N/A   Scattered Clouds
8:55 AM 82.4 °F 83.9 °F 64.4 °F 54% 30.02 in 7.0 mi NE 8.1 mph - N/A   Scattered Clouds
9:47 AM 82.4 °F 83.9 °F 64.4 °F 54% 30.02 in 7.0 mi NNE 10.4 mph - N/A   Scattered Clouds
10:47 AM 84.2 °F 83.8 °F 59.0 °F 42% 30.03 in 7.0 mi NE 13.8 mph - N/A   Mostly Cloudy
11:47 AM 84.2 °F 84.4 °F 60.8 °F 45% 30.03 in 7.0 mi ENE 13.8 mph - N/A   Mostly Cloudy
12:47 PM 84.2 °F 83.8 °F 59.0 °F 42% 30.02 in 7.0 mi ENE 13.8 mph - N/A   Mostly Cloudy
1:47 PM 84.2 °F 83.8 °F 59.0 °F 42% 29.99 in 7.0 mi ENE 9.2 mph - N/A   Mostly Cloudy
2:47 PM 84.2 °F 83.8 °F 59.0 °F 42% 29.97 in 7.0 mi NE 10.4 mph - N/A   Scattered Clouds
3:47 PM 84.2 °F 83.8 °F 59.0 °F 42% 29.96 in 7.0 mi ENE 12.7 mph - N/A   Scattered Clouds
4:47 PM 84.2 °F 83.8 °F 59.0 °F 42% 29.95 in 7.0 mi NE 9.2 mph - N/A   Scattered Clouds
5:47 PM 84.2 °F 85.6 °F 64.4 °F 51% 29.94 in 7.0 mi NE 8.1 mph - N/A   Scattered Clouds
6:47 PM 82.4 °F 83.4 °F 62.6 °F 51% 29.94 in 7.0 mi ENE 10.4 mph - N/A   Scattered Clouds
8:15 PM 80.6 °F 81.8 °F 62.6 °F 54% 29.94 in 10.0 mi ENE 9.2 mph - N/A   Scattered Clouds
8:35 PM 80.6 °F 81.8 °F 62.6 °F 54% 29.94 in 10.0 mi NE 9.2 mph - N/A   Scattered Clouds
8:55 PM 80.6 °F 82.3 °F 64.4 °F 58% 29.94 in 10.0 mi ENE 9.2 mph - N/A   Mostly Cloudy
9:15 PM 80.6 °F 81.8 °F 62.6 °F 54% 29.95 in 10.0 mi ENE 8.1 mph - N/A   Mostly Cloudy
9:35 PM 80.6 °F 82.3 °F 64.4 °F 58% 29.95 in 10.0 mi East 9.2 mph - N/A   Scattered Clouds
9:55 PM 80.6 °F 81.8 °F 62.6 °F 54% 29.95 in 10.0 mi East 8.1 mph - N/A   Scattered Clouds
10:15 PM 78.8 °F - 62.6 °F 57% 29.95 in 10.0 mi East 6.9 mph - N/A   Clear
10:35 PM 78.8 °F - 62.6 °F 57% 29.95 in 10.0 mi East 8.1 mph - N/A   Scattered Clouds
10:55 PM 78.8 °F - 62.6 °F 57% 29.96 in 10.0 mi East 8.1 mph - N/A   Scattered Clouds
11:15 PM 78.8 °F - 64.4 °F 61% 29.96 in 10.0 mi East 5.8 mph - N/A   Scattered Clouds
11:35 PM 78.8 °F - 64.4 °F 61% 29.95 in 10.0 mi East 3.5 mph - N/A   Scattered Clouds
11:55 PM 78.8 °F - 62.6 °F 57% 29.95 in 10.0 mi East 4.6 mph - N/A   Scattered Clouds